This demonstration page uses our WeatherBlox Daily Observations layout. Learn more.

Left ArrowRight Arrow

Hourly Observations for December 8, 2021

Temp ( °F °C ) Dew Point ( °F °C ) Humidity (%) Winds ( mph kmh ) Pressure ( in mb ) Visibility ( mi km ) Precip ( " mm )
12:59 am 00:59 Mostly Cloudy 46 7.8 31 -0.6 56 56 NE 6 9 30.10 1019 10 16 0.00 0.00
1:59 am 01:59 Cloudy 46 7.8 32 0 58 58 N 6 9 30.11 1020 10 16 0.00 0.00
2:59 am 02:59 Cloudy 46 7.8 31 -0.6 56 56 NE 8 13 30.10 1019 10 16 0.00 0.00
3:59 am 03:59 Cloudy 46 7.8 31 -0.6 56 56 NE 8 13 30.07 1018 10 16 0.00 0.00
4:59 am 04:59 Cloudy 46 7.8 33 0.6 61 61 ENE 9 15 30.05 1018 10 16 0.00 0.00
5:59 am 05:59 Cloudy 46 7.8 35 1.7 66 66 ENE 8 13 30.04 1017 10 16 0.00 0.00
6:59 am 06:59 Cloudy with Light Rain 46 7.8 39 3.9 77 77 NE 8 13 30.04 1017 3 5 0.05 1.27
7:16 am 07:16 Cloudy with Light Rain 45 7.2 40 4.4 83 83 ENE 8 13 30.02 1017 5 8 0.02 0.51
7:50 am 07:50 Cloudy with Light Rain 45 7.2 39 3.9 80 80 NNE 6 9 30.07 1018 6 10 0.05 1.27
7:59 am 07:59 Cloudy with Light Rain 45 7.2 39 3.9 80 80 NNE 5 7 30.07 1018 4 6 0.07 1.78
8:59 am 08:59 Cloudy with Light Rain 45 7.2 40 4.4 83 83 N 8 13 30.05 1018 5 8 0.13 3.30
9:59 am 09:59 Cloudy 45 7.2 39 3.9 80 80 NE 10 17 30.02 1017 10 16 0.02 0.51
10:09 am 10:09 Cloudy 45 7.2 39 3.9 80 80 ENE 9 15 30.00 1016 10 16 0.00 0.00
10:59 am 10:59 Cloudy 45 7.2 36 2.2 71 71 NE 10 17 29.98 1015 10 16 0.00 0.00
11:59 am 11:59 Cloudy 46 7.8 31 -0.6 56 56 NNE 9 15 29.96 1014 10 16 0.00 0.00
12:59 pm 12:59 Cloudy 46 7.8 36 2.2 68 68 NNE 13 20 29.91 1013 10 16 0.00 0.00
1:59 pm 13:59 Cloudy 45 7.2 34 1.1 66 66 N 9 15 29.90 1013 10 16 0.00 0.00
2:59 pm 14:59 Cloudy 45 7.2 33 0.6 63 63 N 7 11 29.89 1012 10 16 0.00 0.00
3:59 pm 15:59 Mostly Cloudy 45 7.2 33 0.6 63 63 N 7 11 29.91 1013 10 16 0.00 0.00
4:59 pm 16:59 Clear 43 6.1 33 0.6 68 68 N 8 13 29.93 1014 10 16 0.00 0.00
5:59 pm 17:59 Clear 41 5 33 0.6 73 73 N 5 7 29.94 1014 10 16 0.00 0.00
6:59 pm 18:59 Clear 37 2.8 33 0.6 86 86 Calm 29.96 1015 10 16 0.00 0.00
7:59 pm 19:59 Clear 41 5 34 1.1 76 76 NNW 6 9 30.00 1016 10 16 0.00 0.00
8:59 pm 20:59 Clear 38 3.3 33 0.6 83 83 Calm 30.01 1016 10 16 0.00 0.00
9:59 pm 21:59 Clear 35 1.7 32 0 89 89 Calm 30.03 1017 7 11 0.00 0.00
10:59 pm 22:59 Clear 34 1.1 31 -0.6 89 89 Calm 30.06 1018 7 11 0.00 0.00
11:59 pm 23:59 Clear 33 0.6 31 -0.6 92 92 WSW 3 6 30.09 1019 7 11 0.00 0.00

Powered by AerisWeather